This demonstration page uses our WeatherBlox Daily Observations layout. Learn more.

Left ArrowRight Arrow

Hourly Observations for December 23, 2019

Temp ( °F °C ) Dew Point ( °F °C ) Humidity (%) Winds ( mph kmh ) Pressure ( in mb ) Visibility ( mi km ) Precip ( " mm )
12:52 am 00:52 Mostly Cloudy 33 0.6 30 -1.1 89 89 SSE 10 17 30.01 1016 10 16 0.00 0.00
1:52 am 01:52 Mostly Cloudy 32 0 29 -1.7 88 88 SSE 10 17 30.01 1016 10 16 0.00 0.00
2:52 am 02:52 Mostly Cloudy 31 -0.6 29 -1.7 92 92 S 9 15 30.02 1017 10 16 0.00 0.00
3:52 am 03:52 Mostly Cloudy 31 -0.6 29 -1.7 92 92 SSE 9 15 30.02 1017 10 16 0.00 0.00
4:52 am 04:52 Mostly Cloudy 30 -1.1 28 -2.2 92 92 SSE 7 11 30.02 1017 10 16 0.00 0.00
5:52 am 05:52 Mostly Cloudy 29 -1.7 28 -2.2 96 96 SSE 9 15 30.02 1017 9 14 0.00 0.00
6:52 am 06:52 Mostly Cloudy 31 -0.6 29 -1.7 92 92 SSE 8 13 30.04 1017 7 11 0.00 0.00
7:52 am 07:52 Mostly Cloudy 29 -1.7 28 -2.2 96 96 SE 8 13 30.04 1017 7 11 0.00 0.00
8:52 am 08:52 Mostly Cloudy with Mist and Fog 32 0 31 -0.6 96 96 SSE 7 11 30.05 1018 5 8 0.00 0.00
9:52 am 09:52 Cloudy with Mist and Fog 35 1.7 33 0.6 93 93 SSE 8 13 30.06 1018 4 6 0.00 0.00
10:52 am 10:52 Cloudy 39 3.9 34 1.1 82 82 SSE 5 7 30.06 1018 7 11 0.00 0.00
11:52 am 11:52 Cloudy 42 5.6 34 1.1 73 73 SSE 5 7 30.04 1017 8 13 0.00 0.00
12:52 pm 12:52 Cloudy 45 7.2 34 1.1 66 66 SSE 6 9 30.01 1016 10 16 0.00 0.00
1:52 pm 13:52 Cloudy 47 8.3 35 1.7 63 63 SE 8 13 29.98 1015 10 16 0.00 0.00
2:52 pm 14:52 Cloudy 50 10 35 1.7 57 57 S 8 13 29.96 1015 10 16 0.00 0.00
3:52 pm 15:52 Cloudy 49 9.4 36 2.2 61 61 S 7 11 29.95 1014 10 16 0.00 0.00
4:52 pm 16:52 Cloudy 45 7.2 35 1.7 68 68 SSE 9 15 29.95 1014 10 16 0.00 0.00
5:52 pm 17:52 Cloudy 43 6.1 35 1.7 74 74 SE 6 9 29.95 1014 10 16 0.00 0.00
6:52 pm 18:52 Cloudy 43 6.1 35 1.7 74 74 SSE 3 6 29.95 1014 10 16 0.00 0.00
7:52 pm 19:52 Cloudy 38 3.3 33 0.6 83 83 SE 6 9 29.95 1014 10 16 0.00 0.00
8:52 pm 20:52 Cloudy 39 3.9 33 0.6 79 79 SSE 9 15 29.93 1014 10 16 0.00 0.00
9:52 pm 21:52 Cloudy 39 3.9 33 0.6 79 79 SSE 8 13 29.94 1014 10 16 0.00 0.00
10:52 pm 22:52 Cloudy 42 5.6 36 2.2 79 79 SSE 12 19 29.92 1013 10 16 0.00 0.00
11:52 pm 23:52 Cloudy 42 5.6 36 2.2 79 79 S 12 19 29.91 1013 10 16 0.00 0.00

Powered by AerisWeather